Regional Weather Roundup
Issued by NWS

Home | Current Version | Previous Version | Text Only | Print | Product List | Glossary Off
Versions: 1 2 3 4 5 6 7 8 9 10 11 12 13 14 15 16 17 18 19 20 21 22 23 24 25 26 27 28 29 30 31 32 33 34 35 36 37 38 39 40 41 42 43 44 45 46 47 48 49 50

000
ASUS43 KLOT 221104
RWRIL

ILLINOIS REGIONAL WEATHER ROUNDUP
NATIONAL WEATHER SERVICE CHICAGO/ROMEOVILLE IL
600 AM CDT SUN OCT 22 2017

NOTE: "FAIR" INDICATES FEW OR NO CLOUDS BELOW 12,000 FEET WITH NO
SIGNIFICANT WEATHER AND/OR OBSTRUCTIONS TO VISIBILITY.

* THESE STATIONS ARE NOT UNDER NWS QUALITY CONTROL. THEY ALSO MAY NOT
  REPORT WEATHER SUCH AS PRECIPITATION OR FOG.

ILZ001-002-007-009-015-016-024-221200-
NORTHWEST ILLINOIS

CITY           SKY/WX    TMP DP  RH WIND       PRES   REMARKS
MOLINE         LGT RAIN  57  54  89 NW12      29.90R
STERLING*      HVY RAIN  63  62  97 VRB5        N/A  FOG
SAVANNA*       LGT RAIN  62  61  96 CALM      29.89R
$$

ILZ003-004-008-010-011-017-018-221200-
NORTH CENTRAL ILLINOIS

CITY           SKY/WX    TMP DP  RH WIND       PRES   REMARKS
ROCKFORD       CLOUDY    63  59  87 SE7       29.90S
FREEPORT*      CLOUDY    63  59  89 S9        29.90R
ROCHELLE*      MOCLDY    63  58  83 S8G18     29.89S
$$

ILZ005-006-012>014-019>023-221200-
NORTHEAST ILLINOIS

CITY           SKY/WX    TMP DP  RH WIND       PRES   REMARKS
CHICAGO-OHARE  MOCLDY    66  57  72 S14       29.92F
CHICAGO-MIDWAY MOCLDY    65  56  72 S12       29.94F
AURORA         MOCLDY    65  58  78 SE12      29.92F
LANSING*       CLOUDY    64  56  75 S13       29.97F
JOLIET*        CLOUDY    68  59  74 S9G16     29.94S
WAUKEGAN       CLEAR     65  58  78 S9        29.91S
DUPAGE AIRPORT CLOUDY    66  59  78 S13       29.92F
KANKAKEE*      PTCLDY    63  55  77 SE9       29.96F
WHEELING       MOCLDY    67  59  75 S13       29.94F
NORTHERLY ISL    N/A     64  53  67 S15         N/A
$$

LMZ740>746-221200-
SOUTHERN LAKE MICHIGAN

STATION/POSITION SKY/WX   TEMP    WIND        PRES    VSBY  WAVE
                          AIR SEA DIR/SP/G                  HT/PER
                          (F)     (DEG/KT/KT) (MB)    (MI)  (FT/S)
SOUTHERN BUOY              63 60  150/ 19/ 21 1014.2          3/ 5
WILMETTE HARBOR            61 58  160/ 12/ 16   N/A           3/ 4
HARRISON CRIB              65     180/ 17/ 18   N/A
BURNHAM HARBOR             65     150/ 12/ 13   N/A
CALUMET HARBOR             65     170/  9/ 13 1014.0R
BURNS HARBOR               67     180/ 17/ 24 1015.9R
MICHIGAN CITY              65     160/ 12/ 14   N/A
MICHIGAN CITY 6N           63 58  180/ 16/ 21   N/A           2/ 2
ST. JOSEPH                 65 59  190/ 16/ 19 1016.1R         2/ 3
$$

ILZ025>027-034>036-040-047-049-050-058-095>099-221200-
WEST-CENTRAL ILLINOIS

CITY           SKY/WX    TMP DP  RH WIND       PRES   REMARKS
QUINCY         TSTM      55  54  96 NW16      29.92R FOG
MACOMB*        LGT RAIN  58  58  97 NW16      29.92R
JACKSONVILLE*  CLOUDY    67  61  81 SE13G24   29.87R
PITTSFIELD*    RAIN      67  64  90 NW10      29.89R
$$

ILZ028>032-037-038-041>044-048-051>054-059>061-221200-
CENTRAL ILLINOIS

CITY           SKY/WX    TMP DP  RH WIND       PRES   REMARKS
BLOOMINGTON    CLOUDY    64  59  83 S17       29.94R
DECATUR        CLOUDY    67  59  75 S13       29.95R
PEORIA         LGT RAIN  66  63  90 S12       29.87S FOG
LACON*         CLOUDY    67  60  78 S12       29.88R THUNDER
LINCOLN*       MOCLDY    68  61  79 S14G23    29.90S
SPRINGFIELD    CLOUDY    69  62  78 S16G29    29.89S
TAYLORVILLE    CLOUDY    67  60  78 S14G22    29.93R
$$

ILZ033-039-045-046-055>057-062-063-221200-
EAST-CENTRAL ILLINOIS

CITY           SKY/WX    TMP DP  RH WIND       PRES   REMARKS
CHAMPAIGN      CLOUDY    66  57  72 SE20G25   29.97F
DANVILLE*      MOCLDY    64  55  73 S14G20    29.99S
MATTOON        CLOUDY    64  59  83 S16G24    29.97F
PARIS*         PTCLDY    62  56  81 SE15      30.03R
$$

ILZ079-100>102-221200-
SOUTHWEST ILLINOIS

CITY           SKY/WX    TMP DP  RH WIND       PRES   REMARKS
ALTON          CLOUDY    69  64  82 SE14      29.90S
BELLEVILLE     CLOUDY    70  60  70 S17G24    29.93S
CAHOKIA*       MOCLDY    71  62  73 S15G24    29.89R
SPARTA*        CLOUDY    69  62  78 S14G23    29.95R
$$

ILZ064>066-069>071-074>076-080>082-084>086-088>090-092>094-221200-
SOUTH-CENTRAL ILLINOIS

CITY           SKY/WX    TMP DP  RH WIND       PRES   REMARKS
CARBONDALE     PTCLDY    68  63  84 S14G26    29.96S
EFFINGHAM*     CLOUDY    66  60  80 SE13G20   30.00S
MARION         CLOUDY    69  62  78 S14G20    29.99R
MT. VERNON     CLOUDY    69  61  75 S10G17    29.99R
CENTRALIA*     MOCLDY    69  63  79 S16       29.96R
SALEM*         CLOUDY    68  60  76 SE6       29.97S
METROPOLIS*    CLOUDY    68  60  75 S7        30.02S
$$

ILZ067-068-072-073-078-083-087-091-221200-
SOUTHEAST ILLINOIS

CITY           SKY/WX    TMP DP  RH WIND       PRES   REMARKS
LAWRENCEVILLE  PTCLDY    65  55  70 S16G23    30.05R
FLORA*         MOCLDY    66  60  79 S13       30.00R
FAIRFIELD*     CLOUDY    66  60  80 SE9       30.00S
HARRISBURG*    MOCLDY    68  61  78 S14       30.01F
ROBINSON*      CLOUDY    64  56  76 S14G21    30.03S
CARMI*         CLOUDY    65  59  80 SE14      30.02S
$$

ABBREVIATIONS USED IN REMARKS
   TC - TEMPERATURE IN CELSIUS
  WCI - WIND CHILL INDEX
   HX - HEAT INDEX
  VSB - VISIBILITY
$$





USA.gov is the U.S. government's official web portal to all federal, state and local government web resources and services.